Missoula, MT

11:00 AM MDT on April 30, 2017 (GMT -0600)
Missoula International

Weather History for KMSO - April, 2013

Change the Weather History Date:

Monday, April 1, 2013

  Actual Average Record
Temperature  
Mean Temperature 50 °F 43 °F  
Max Temperature 68 °F 55 °F 78 °F (1900)
Min Temperature 32 °F 31 °F 2 °F (1936)
Degree Days  
Heating Degree Days 15 22  
Month to date heating degree days 15 22  
Since 1 July heating degree days 5831 6205  
Cooling Degree Days 0 0  
Month to date cooling degree days 0 0  
Year to date cooling degree days 0 0  
Moisture  
Dew Point 30 °F    
Average Humidity 53    
Maximum Humidity 82    
Minimum Humidity 24    
Precipitation  
Precipitation 0.00 in 0.04 in 0.23 in (1968)
Month to date precipitation 0.00 0.04  
Year to date precipitation 2.06 2.59  
Snow  
Snow 0.00 in - - ()
Month to date snowfall 0.0  
Year to date snowfall 22.6  
Since 1 July snowfall 43.7  
Snow Depth 0.00 in    
Sea Level Pressure  
Sea Level Pressure 30.00 in    
Wind  
Wind Speed 5 mph (NW)    
Max Wind Speed 14 mph    
Max Gust Speed 20 mph    
Visibility 10 miles    
Events      
T = Trace of Precipitation, MM = Missing Value Source: NWS Daily Summary

Daily Weather History Graph

Daily Weather History Graph

Search for Another Location

Airport or City:

Trip Planner

Search our weather history database for the weather conditions in past years. The results will help you decide how hot, cold, wet, or windy it might be!

Date:

Astronomy

Apr. 01, 2013 Rise Set
Actual Time 7:14 AM MDT 8:06 PM MDT
Civil Twilight 6:44 AM MDT 8:36 PM MDT
Nautical Twilight 6:07 AM MDT 9:13 PM MDT
Astronomical Twilight 5:28 AM MDT 9:52 PM MDT
Moon 1:34 AM MDT (4/1) 10:49 AM MDT (4/1)
Length of Visible Light 13h 52m
Length of Day
12h 51m
Waning Gibbous, 66% of the Moon is Illuminated
Apr 1
Waning Gibbous
Apr 2
Last Quarter
Apr 10
New
Apr 18
First Quarter
Apr 25
Full

Hourly Weather History & Observations

Time (MDT) Temp. Windchill Dew Point Humidity Pressure Visibility Wind Dir Wind Speed Gust Speed Precip Events Conditions
12:53 AM 46.9 °F - 28.9 °F 50% 30.00 in 10.0 mi ESE 6.9 mph - N/A   Clear
1:53 AM 43.0 °F - 30.0 °F 60% 30.01 in 10.0 mi Calm Calm - N/A   Clear
2:53 AM 37.9 °F 35.5 °F 30.0 °F 73% 30.02 in 10.0 mi North 3.5 mph - N/A   Clear
3:53 AM 37.9 °F 32.7 °F 30.0 °F 73% 30.02 in 10.0 mi North 6.9 mph - N/A   Clear
4:53 AM 36.0 °F 32.1 °F 28.9 °F 76% 30.03 in 10.0 mi North 4.6 mph - N/A   Clear
5:53 AM 34.0 °F 31.0 °F 28.0 °F 79% 30.04 in 10.0 mi WNW 3.5 mph - N/A   Clear
6:53 AM 33.1 °F - 28.0 °F 82% 30.05 in 10.0 mi Calm Calm - N/A   Clear
7:53 AM 34.0 °F - 28.0 °F 79% 30.06 in 10.0 mi Calm Calm - N/A   Clear
8:53 AM 39.9 °F 37.8 °F 30.9 °F 70% 30.06 in 10.0 mi WNW 3.5 mph - N/A   Clear
9:53 AM 46.9 °F - 30.9 °F 54% 30.05 in 10.0 mi NNW 4.6 mph - N/A   Unknown
10:53 AM 50.0 °F - 30.9 °F 48% 30.05 in 10.0 mi WSW 6.9 mph - N/A   Clear
11:53 AM 55.0 °F - 30.9 °F 40% 30.03 in 10.0 mi WSW 4.6 mph - N/A   Clear
12:53 PM 60.1 °F - 28.9 °F 31% 30.00 in 10.0 mi SSE 6.9 mph - N/A   Clear
1:53 PM 63.0 °F - 28.9 °F 28% 29.97 in 10.0 mi SSE 9.2 mph - N/A   Clear
2:53 PM 64.9 °F - 30.0 °F 27% 29.96 in 10.0 mi Calm Calm - N/A   Clear
3:53 PM 64.9 °F - 30.0 °F 27% 29.95 in 10.0 mi Variable 4.6 mph - N/A   Clear
4:53 PM 68.0 °F - 30.0 °F 24% 29.94 in 10.0 mi Variable 6.9 mph - N/A   Clear
5:53 PM 66.9 °F - 30.9 °F 26% 29.94 in 10.0 mi North 6.9 mph - N/A   Clear
6:53 PM 64.9 °F - 32.0 °F 29% 29.94 in 10.0 mi North 11.5 mph - N/A   Clear
7:53 PM 60.1 °F - 32.0 °F 35% 29.96 in 10.0 mi North 9.2 mph - N/A   Clear
8:53 PM 55.0 °F - 30.9 °F 40% 29.96 in 10.0 mi NW 10.4 mph - N/A   Clear
9:53 PM 48.9 °F - 32.0 °F 52% 29.99 in 10.0 mi NW 5.8 mph - N/A   Clear
10:53 PM 46.9 °F - 30.9 °F 54% 30.00 in 10.0 mi Calm Calm - N/A   Clear
11:53 PM 42.1 °F - 30.9 °F 65% 30.01 in 10.0 mi Calm Calm - N/A   Clear